K8JMX-13 Weather Reports


time (UTC)temp
C
wind
direction
speed
KPH
gust
KPH
rain 1hr
cm
rain 24hr
cm
rain mn
cm
humidity
%
barometer
mb
20260506235708 12 354 9.7 12.9 0.00 0.71 0.71 49 1011.8
20260506235202 12 33 1.6 11.3 0.00 0.71 0.71 51 1011.8
20260506234700 12 76 3.2 6.4 0.00 0.71 0.71 50 1011.9
20260506234157 12 7 4.8 9.7 0.00 0.71 0.71 50 1011.7
20260506233654 12 20 1.6 4.8 0.00 0.71 0.71 51 1011.7
20260506233151 12 359 1.6 4.8 0.00 0.71 0.71 51 1011.6
20260506232647 12 63 0.0 4.8 0.00 0.71 0.71 52 1011.8
20260506232143 13 58 1.6 4.8 0.00 0.71 0.71 52 1012.0
20260506231640 13 32 1.6 3.2 0.00 0.71 0.71 51 1011.9
20260506231138 13 20 1.6 4.8 0.00 0.71 0.71 50 1012.1
20260506230635 13 45 1.6 3.2 0.00 0.71 0.71 49 1012.2
20260506230132 13 42 1.6 3.2 0.00 0.71 0.71 51 1012.2
20260506225628 13 61 0.0 1.6 0.00 0.71 0.71 51 1012.1
20260506225125 13 57 1.6 4.8 0.00 0.71 0.71 50 1012.1
20260506224621 13 61 0.0 3.2 0.00 0.71 0.71 50 1012.1
20260506224118 13 14 0.0 4.8 0.00 0.71 0.71 49 1012.2
20260506223614 13 293 3.2 4.8 0.00 0.71 0.71 50 1012.2
20260506223110 13 61 1.6 6.4 0.00 0.71 0.71 50 1012.2
20260506222608 13 1 4.8 4.8 0.00 0.71 0.71 50 1012.4
20260506222104 13 340 3.2 9.7 0.00 0.71 0.71 50 1012.4
20260506221602 13 233 3.2 6.4 0.00 0.71 0.71 50 1012.3
20260506221059 13 292 3.2 4.8 0.00 0.71 0.71 48 1012.1
20260506220555 13 24 1.6 4.8 0.00 0.71 0.71 49 1012.0
20260506220051 13 55 0.0 3.2 0.00 0.71 0.71 49 1011.9
20260506215548 13 266 3.2 11.3 0.00 0.71 0.71 48 1011.9
20260506215044 13 46 6.4 6.4 0.00 0.71 0.71 48 1011.8
20260506214541 13 35 1.6 6.4 0.00 0.71 0.71 47 1011.7
20260506214038 13 44 1.6 1.6 0.00 0.71 0.71 49 1011.8
20260506213536 13 73 0.0 3.2 0.00 0.71 0.71 49 1011.6
20260506213033 13 3 4.8 11.3 0.00 0.71 0.71 47 1011.7
20260506212529 13 46 1.6 9.7 0.00 0.71 0.71 48 1011.4
20260506212024 13 322 3.2 6.4 0.00 0.71 0.71 47 1011.4
20260506211520 13 24 1.6 11.3 0.00 0.71 0.71 48 1011.4
20260506211018 13 287 3.2 12.9 0.00 0.71 0.71 48 1011.5
20260506210514 13 136 0.0 6.4 0.00 0.71 0.71 47 1011.4
20260506210006 13 296 8.0 11.3 0.00 0.71 0.71 47 1011.3
20260506205503 13 301 3.2 9.7 0.00 0.71 0.71 47 1011.5
20260506204958 13 348 3.2 4.8 0.00 0.71 0.71 48 1011.3
20260506204456 13 322 6.4 9.7 0.00 0.71 0.71 48 1011.4
20260506203953 13 359 3.2 6.4 0.00 0.71 0.71 49 1011.3
20260506203450 14 315 4.8 11.3 0.00 0.71 0.71 49 1011.3
20260506202946 14 66 4.8 6.4 0.00 0.71 0.71 48 1011.2
20260506202444 14 342 4.8 12.9 0.00 0.71 0.71 49 1011.3
20260506201940 14 63 0.0 6.4 0.00 0.71 0.71 49 1011.2
20260506201438 13 8 1.6 9.7 0.00 0.71 0.71 49 1011.3
20260506200934 13 327 6.4 6.4 0.00 0.71 0.71 49 1011.1
20260506200431 13 79 4.8 9.7 0.00 0.71 0.71 49 1011.1
20260506195927 13 51 4.8 20.9 0.00 0.71 0.71 50 1011.2
20260506195424 13 43 3.2 3.2 0.00 0.71 0.71 50 1011.2
20260506194921 14 51 4.8 11.3 0.00 0.71 0.71 51 1011.1
20260506194418 14 23 3.2 11.3 0.00 0.71 0.71 48 1011.0
20260506193915 14 347 6.4 9.7 0.00 0.71 0.71 48 1011.2
20260506193412 15 331 3.2 11.3 0.00 0.71 0.71 50 1011.0
20260506192908 15 342 9.7 11.3 0.00 0.71 0.71 48 1011.3
20260506192405 14 86 6.4 12.9 0.00 0.71 0.71 48 1011.1
20260506191902 15 45 8.0 14.5 0.00 0.71 0.71 47 1011.0
20260506191358 15 74 3.2 6.4 0.00 0.71 0.71 50 1010.9
20260506190855 15 24 6.4 14.5 0.00 0.71 0.71 48 1011.0
20260506190352 16 41 1.6 4.8 0.00 0.71 0.71 45 1010.8
20260506185849 15 74 3.2 9.7 0.00 0.71 0.71 48 1011.0
20260506185346 15 17 3.2 11.3 0.00 0.71 0.71 45 1010.9
20260506184843 16 296 6.4 14.5 0.00 0.71 0.71 45 1010.9
20260506184340 15 321 8.0 9.7 0.00 0.71 0.71 45 1011.0
20260506183837 15 54 8.0 11.3 0.00 0.71 0.71 47 1010.8
20260506183332 15 4 6.4 11.3 0.00 0.71 0.71 44 1010.9
20260506182830 15 53 6.4 11.3 0.00 0.71 0.71 48 1011.1
20260506182327 16 16 4.8 6.4 0.00 0.71 0.71 48 1011.1
20260506181825 15 294 6.4 9.7 0.00 0.71 0.71 46 1011.1
20260506181322 15 16 4.8 6.4 0.00 0.71 0.71 47 1011.0
20260506180819 15 349 6.4 6.4 0.00 0.71 0.71 49 1011.1
20260506180315 15 25 8.0 16.1 0.00 0.71 0.71 47 1011.1
20260506175812 15 41 1.6 6.4 0.00 0.71 0.71 46 1011.0
20260506175309 15 327 3.2 9.7 0.00 0.71 0.71 48 1010.9
20260506174806 15 275 9.7 14.5 0.00 0.71 0.71 46 1011.2
20260506174303 15 301 3.2 11.3 0.00 0.71 0.71 48 1011.2
20260506173801 15 162 1.6 6.4 0.00 0.71 0.71 48 1011.2
20260506173257 15 7 6.4 12.9 0.00 0.71 0.71 49 1011.3
20260506172754 15 338 4.8 6.4 0.00 0.71 0.71 48 1011.3
20260506172251 15 69 3.2 4.8 0.00 0.71 0.71 49 1011.1
20260506171748 15 337 4.8 9.7 0.00 0.71 0.71 49 1011.2
20260506171245 14 345 4.8 9.7 0.00 0.71 0.71 50 1011.1
20260506170743 15 78 6.4 6.4 0.00 0.71 0.71 50 1011.1
20260506170239 15 271 4.8 6.4 0.00 0.71 0.71 48 1011.2
20260506165738 15 282 4.8 4.8 0.00 0.71 0.71 53 1011.1
20260506165234 14 315 4.8 6.4 0.00 0.71 0.71 49 1011.0
20260506164732 13 7 3.2 11.3 0.00 0.71 0.71 52 1011.1
20260506164229 14 8 3.2 14.5 0.00 0.71 0.71 50 1011.1
20260506163725 14 14 3.2 6.4 0.00 0.71 0.71 52 1011.2
20260506163220 13 320 0.0 9.7 0.00 0.71 0.71 53 1011.4
20260506162716 13 30 3.2 6.4 0.00 0.71 0.71 48 1011.3
20260506162214 13 65 0.0 9.7 0.00 0.71 0.71 53 1011.1
20260506161711 13 345 3.2 3.2 0.00 0.71 0.71 52 1011.4
20260506161208 12 248 4.8 6.4 0.00 0.71 0.71 53 1011.4
20260506160706 13 92 3.2 9.7 0.00 0.71 0.71 49 1011.1
20260506160202 12 63 4.8 6.4 0.00 0.71 0.71 53 1011.0
20260506155701 12 2 3.2 3.2 0.00 0.71 0.71 50 1011.0
20260506155158 12 16 6.4 6.4 0.00 0.71 0.71 52 1010.9
20260506153259 11 215 3.2 11.3 0.00 0.71 0.71 57 1010.9
20260506152756 12 49 6.4 9.7 0.00 0.71 0.71 56 1010.8
20260506152254 11 332 3.2 9.7 0.00 0.71 0.71 58 1010.9
20260506151753 11 317 3.2 3.2 0.00 0.71 0.71 59 1010.6
20260506151249 11 62 1.6 11.3 0.00 0.71 0.71 61 1010.6
20260506150745 11 39 4.8 9.7 0.00 0.71 0.71 57 1010.3
20260506150243 11 300 1.6 6.4 0.00 0.71 0.71 60 1010.3
20260506145739 11 36 1.6 6.4 0.00 0.71 0.71 60 1010.6
20260506145236 11 8 8.0 12.9 0.00 0.71 0.71 63 1010.3
20260506144733 11 12 3.2 6.4 0.00 0.71 0.71 64 1010.5
20260506144230 10 20 3.2 4.8 0.00 0.71 0.71 64 1010.6
20260506143728 10 77 4.8 6.4 0.00 0.71 0.71 64 1010.5
20260506143225 10 57 1.6 9.7 0.00 0.71 0.71 66 1010.4
20260506142724 10 80 3.2 12.9 0.00 0.71 0.71 66 1010.2
20260506142221 10 1 6.4 12.9 0.00 0.71 0.71 66 1010.3
20260506141719 10 79 3.2 9.7 0.00 0.71 0.71 68 1010.0
20260506141217 10 23 8.0 12.9 0.00 0.71 0.71 69 1009.9
20260506140715 10 49 4.8 11.3 0.00 0.71 0.71 70 1010.0
20260506140211 9 21 3.2 3.2 0.00 0.71 0.71 73 1009.6
20260506135708 9 72 4.8 14.5 0.00 0.71 0.71 71 1009.9
20260506135204 9 30 1.6 11.3 0.00 0.71 0.71 72 1009.9
20260506134701 8 53 8.0 20.9 0.00 0.71 0.71 72 1009.7
20260506134157 8 15 1.6 9.7 0.00 0.71 0.71 75 1009.7
20260506133655 8 24 4.8 11.3 0.00 0.71 0.71 74 1009.6
20260506133151 8 34 8.0 12.9 0.00 0.71 0.71 75 1009.4
20260506132649 8 15 8.0 12.9 0.00 0.71 0.71 76 1009.5
20260506132145 8 25 6.4 6.4 0.00 0.71 0.71 77 1009.4
20260506131643 8 341 4.8 6.4 0.00 0.71 0.71 81 1009.6
20260506131139 8 8 3.2 11.3 0.00 0.71 0.71 82 1009.6
20260506130636 8 52 6.4 11.3 0.00 0.71 0.71 84 1009.6
20260506130133 8 359 0.0 3.2 0.00 0.71 0.71 86 1009.7
20260506125632 8 340 3.2 3.2 0.00 0.71 0.71 86 1009.6
20260506125129 8 39 6.4 6.4 0.00 0.71 0.71 85 1009.5
20260506124627 8 30 3.2 4.8 0.00 0.71 0.71 84 1009.3
20260506124124 8 58 1.6 3.2 0.00 0.71 0.71 84 1009.2
20260506123622 8 55 1.6 11.3 0.00 0.71 0.71 85 1009.0
20260506123120 8 64 0.0 3.2 0.00 0.71 0.71 87 1008.9
20260506122616 8 86 1.6 6.4 0.00 0.71 0.71 88 1008.3
20260506122115 8 16 1.6 3.2 0.00 0.71 0.71 88 1008.3
20260506121612 8 351 3.2 4.8 0.00 0.71 0.71 89 1008.4
20260506121108 8 56 3.2 3.2 0.00 0.71 0.71 89 1008.4
20260506120606 8 10 1.6 3.2 0.00 0.71 0.71 89 1008.2
20260506115601 8 43 1.6 3.2 0.00 0.71 0.71 90 1008.5
20260506115059 7 50 0.0 9.7 0.00 0.71 0.71 90 1008.2
20260506114556 8 29 1.6 4.8 0.00 0.71 0.71 90 1008.5
20260506114054 7 21 1.6 4.8 0.00 0.71 0.71 90 1008.3
20260506113552 8 5 3.2 4.8 0.00 0.71 0.71 90 1008.5
20260506113049 8 320 1.6 3.2 0.00 0.71 0.71 91 1008.5
20260506112546 8 20 0.0 3.2 0.00 0.71 0.71 91 1007.8
20260506112043 8 0 3.2 3.2 0.00 0.71 0.71 91 1007.4
20260506111541 7 59 4.8 14.5 0.00 0.71 0.71 91 1007.0
20260506111038 7 64 3.2 6.4 0.00 0.71 0.71 91 1007.1
20260506110536 7 54 0.0 4.8 0.00 0.71 0.71 91 1007.1
20260506110033 7 64 9.7 14.5 0.00 0.71 0.71 91 1007.4
20260506105528 7 65 6.4 9.7 0.00 0.71 0.71 91 1007.2
20260506105026 7 36 6.4 11.3 0.00 0.71 0.71 91 1007.2
20260506104524 8 44 3.2 4.8 0.00 0.71 0.71 91 1007.4
20260506104022 7 341 4.8 6.4 0.00 0.71 0.71 91 1007.5
20260506103519 8 51 3.2 4.8 0.00 0.71 0.71 91 1007.6
20260506103015 8 41 3.2 6.4 0.00 0.71 0.71 91 1007.5
20260506102514 7 353 1.6 9.7 0.00 0.71 0.71 91 1007.4
20260506102011 7 44 3.2 4.8 0.00 0.71 0.71 91 1007.1
20260506101507 7 31 1.6 9.7 0.00 0.71 0.71 91 1006.8
20260506101004 7 68 0.0 3.2 0.00 0.71 0.71 91 1006.5
20260506100503 7 75 0.0 4.8 0.00 0.71 0.71 91 1006.6
20260506100000 7 59 3.2 6.4 0.13 0.71 0.71 91 1006.0
20260506095459 7 31 1.6 4.8 0.13 0.71 0.71 91 1006.3
20260506094954 7 24 1.6 9.7 0.00 0.69 0.69 91 1006.6
20260506094453 7 47 3.2 9.7 0.00 0.69 0.69 91 1006.0
20260506093950 7 37 6.4 9.7 0.00 0.69 0.69 91 1005.8
20260506093449 7 73 1.6 6.4 0.00 0.69 0.69 91 1006.3
20260506092946 8 41 4.8 9.7 0.00 0.69 0.69 91 1006.0
20260506092444 7 55 1.6 6.4 0.00 0.69 0.69 91 1006.5
20260506091940 8 359 3.2 9.7 0.00 0.69 0.69 91 1006.7
20260506091438 8 14 1.6 6.4 0.00 0.69 0.69 91 1006.6
20260506090935 8 55 1.6 12.9 0.00 0.69 0.69 91 1006.4
20260506090433 7 46 3.2 6.4 0.00 0.69 0.69 91 1006.0
20260506085929 7 74 3.2 14.5 0.18 0.69 0.69 91 1006.1
20260506085426 7 38 6.4 9.7 0.18 0.69 0.69 91 1006.2
20260506084922 7 73 0.0 14.5 0.00 0.66 0.66 91 1006.6
20260506084419 8 53 3.2 9.7 0.13 0.66 0.66 91 1006.7
20260506083910 7 5 9.7 14.5 0.30 0.66 0.66 91 1006.5
20260506083407 8 32 9.7 12.9 0.30 0.64 0.64 91 1006.6
20260506082905 8 79 1.6 12.9 0.30 0.61 0.61 91 1006.4
20260506082402 8 11 6.4 11.3 0.30 0.58 0.58 91 1006.1
20260506081857 8 8 1.6 4.8 0.13 0.56 0.56 91 1006.3
20260506081356 8 37 1.6 14.5 0.18 0.53 0.53 91 1006.3
20260506080853 8 44 4.8 11.3 0.18 0.53 0.53 91 1006.2
20260506080350 8 56 8.0 12.9 0.00 0.51 0.51 91 1006.2
20260506073333 7 28 3.2 14.5 0.00 0.48 0.48 91 1005.9
20260506072830 8 359 6.4 12.9 0.00 0.48 0.48 91 1005.5
20260506072328 8 24 11.3 12.9 0.13 0.48 0.48 91 1006.0
20260506071826 8 23 3.2 9.7 0.13 0.48 0.48 91 1005.6
20260506071324 8 31 3.2 6.4 0.18 0.46 0.46 91 1005.7
20260506070820 8 48 3.2 11.3 0.18 0.46 0.46 91 1005.6
20260506070317 8 60 3.2 6.4 0.13 0.43 0.43 91 1005.7
20260506062254 9 35 0.0 6.4 0.18 0.25 0.25 91 1005.9
20260506061750 9 22 3.2 4.8 0.30 0.23 0.23 91 1005.8
20260506061247 9 62 0.0 9.7 0.48 0.23 0.23 91 1005.7
20260506060745 9 9 1.6 6.4 0.43 0.20 0.20 91 1005.8
20260506060243 9 23 1.6 11.3 0.13 0.15 0.15 91 1005.8
20260506051214 10 54 6.4 9.7 0.18 0.03 0.03 91 1006.1
20260506050712 10 23 3.2 3.2 0.00 0.00 0.00 91 1006.1
20260506050209 10 66 0.0 3.2 0.00 0.00 0.00 91 1006.3
20260506044700 10 56 0.0 3.2 0.00 0.00 0.00 91 1006.2
20260506044157 10 63 3.2 4.8 0.00 0.00 0.00 91 1006.3
20260506043654 10 45 6.4 9.7 0.00 0.00 0.00 91 1006.1
20260506043152 10 46 6.4 9.7 0.00 0.00 0.00 91 1006.1
20260506042651 10 12 3.2 9.7 0.00 0.00 0.00 91 1006.4
20260506042149 10 65 3.2 4.8 0.00 0.00 0.00 91 1006.3
20260506041647 10 73 0.0 3.2 0.00 0.00 0.00 91 1006.3
20260506041143 10 76 0.0 3.2 0.00 0.00 0.00 91 1006.1
20260506040641 10 58 4.8 9.7 0.00 0.00 0.00 91 1006.4
20260506040138 10 49 6.4 16.1 0.00 0.00 0.00 91 1006.3
20260506035635 10 35 12.9 16.1 0.13 1.42 1.42 91 1006.6
20260506035131 10 62 6.4 9.7 0.13 1.42 1.42 91 1006.6
20260506034629 10 48 3.2 9.7 0.00 1.40 1.40 91 1006.7
20260506034125 10 39 1.6 6.4 0.18 1.40 1.40 91 1006.7
20260506033623 10 107 1.6 6.4 0.13 1.37 1.37 91 1006.8
20260506033119 10 57 1.6 4.8 0.30 1.37 1.37 90 1006.8
20260506032617 10 75 8.0 11.3 0.36 1.35 1.35 90 1006.8
20260506032114 11 55 1.6 6.4 0.48 1.32 1.32 90 1006.8
20260506031611 12 62 3.2 6.4 0.61 1.30 1.30 90 1007.1
20260506031108 13 314 3.2 9.7 0.71 1.24 1.24 90 1007.1
20260506030606 13 312 0.0 3.2 0.61 1.17 1.17 90 1006.9
20260506030103 15 276 1.6 6.4 0.48 1.12 1.12 90 1006.8
20260506025600 15 140 0.0 4.8 0.18 1.07 1.07 90 1006.9
20260506025056 15 303 4.8 6.4 0.00 1.04 1.04 90 1007.0
20260506024553 15 221 4.8 6.4 0.13 1.04 1.04 90 1006.8
20260506024050 15 232 4.8 6.4 0.13 1.04 1.04 91 1006.7
20260506023545 15 192 3.2 3.2 0.18 1.02 1.02 91 1006.7
20260506023043 15 202 4.8 4.8 0.36 1.02 1.02 91 1006.7
20260506022540 15 197 4.8 4.8 0.18 0.99 0.99 91 1006.8
20260506022038 15 161 1.6 1.6 0.13 0.97 0.97 91 1006.7
20260506021535 15 15 1.6 4.8 0.30 0.97 0.97 91 1006.8
20260506021033 15 295 1.6 11.3 0.30 0.94 0.94 91 1006.7
20260506020530 15 189 1.6 4.8 0.30 0.91 0.91 91 1006.9
20260506020027 15 202 3.2 3.2 0.48 0.89 0.89 91 1006.8
20260506015525 15 163 1.6 3.2 0.30 0.84 0.84 91 1006.9
20260506015021 15 218 1.6 3.2 0.30 0.81 0.81 91 1006.8
20260506014519 15 138 1.6 4.8 0.30 0.79 0.79 92 1006.8
20260506014015 15 108 0.0 1.6 0.30 0.76 0.76 92 1006.5
20260506013513 15 102 0.0 0.0 0.30 0.74 0.74 92 1006.7
20260506013009 15 139 0.0 0.0 0.13 0.71 0.71 92 1006.6
20260506012505 15 142 0.0 0.0 0.18 0.69 0.69 92 1006.4
20260506012002 15 181 0.0 0.0 0.18 0.69 0.69 92 1006.4
20260506011500 15 181 0.0 0.0 0.00 0.66 0.66 92 1006.4
20260506010956 15 182 0.0 0.0 0.00 0.66 0.66 91 1006.3
20260506010455 15 182 0.0 0.0 0.00 0.66 0.66 91 1006.3
20260506005951 15 223 3.2 3.2 0.00 0.66 0.66 91 1006.2
20260506005449 15 164 1.6 1.6 0.18 0.66 0.66 91 1006.3
20260506004944 15 140 1.6 3.2 0.18 0.66 0.66 91 1006.3
20260506004442 15 160 0.0 1.6 0.13 0.64 0.64 91 1006.3
20260506003938 15 163 1.6 3.2 0.13 0.64 0.64 91 1006.4
20260506003435 15 165 1.6 1.6 0.18 0.61 0.61 91 1006.4
20260506002931 15 165 1.6 3.2 0.00 0.58 0.58 91 1006.5
20260506002427 15 162 1.6 3.2 0.00 0.58 0.58 91 1006.5
20260506001922 15 100 0.0 0.0 0.00 0.58 0.58 91 1006.3
20260506001420 15 116 1.6 1.6 0.00 0.58 0.58 91 1006.4
20260506000917 15 115 1.6 4.8 0.13 0.58 0.58 91 1006.4
20260506000416 15 166 3.2 6.4 0.30 0.58 0.58 91 1006.5
20260505235911 15 97 1.6 3.2 0.18 0.56 0.56 91 1006.4